Norwood, MA

8:36 AM EDT on June 23, 2018 (GMT -0400)
Norwood Memorial

Weather History for KOWD - October, 2017

Change the Weather History Date:

Friday, October 13, 2017

  Actual Average Record
Temperature  
Mean Temperature 50 °F -  
Max Temperature 69 °F 60 °F 73 °F (2000)
Min Temperature 32 °F 37 °F 25 °F (2012)
Degree Days  
Heating Degree Days 15    
Moisture  
Dew Point 37 °F    
Average Humidity 85    
Maximum Humidity 96    
Minimum Humidity 45    
Precipitation  
Precipitation 0.00 in - - ()
Sea Level Pressure  
Sea Level Pressure 30.47 in    
Wind  
Wind Speed 1 mph (ESE)    
Max Wind Speed 9 mph    
Max Gust Speed 16 mph    
Visibility 5 miles    
Events Fog    
Averages and records for this station are not official NWS values.
T = Trace of Precipitation, MM = Missing Value Source: NWS Daily Summary

Daily Weather History Graph

Daily Weather History Graph

Search for Another Location

Airport or City:

Astronomy

Oct. 13, 2017 Rise Set
Actual Time 6:55 AM EDT 6:05 PM EDT
Civil Twilight 6:27 AM EDT 6:33 PM EDT
Nautical Twilight 5:54 AM EDT 7:06 PM EDT
Astronomical Twilight 5:22 AM EDT 7:38 PM EDT
Moon 12:07 AM EDT (10/13) 2:54 PM EDT (10/13)
Length of Visible Light 12h 06m
Length of Day
11h 10m
Last Quarter, 37% of the Moon is Illuminated
Oct 13
Last Quarter
Oct 19
New
Oct 27
First Quarter
Nov 4
Full
Nov 10
Last Quarter

Hourly Weather History & Observations

Time (EDT) Temp. Dew Point Humidity Pressure Visibility Wind Dir Wind Speed Gust Speed Precip Events Conditions
12:07 AM 37.0 °F 33.1 °F 86% 30.47 in 0.8 mi Calm Calm - N/A   Clear
12:15 AM 37.9 °F 36.0 °F 93% 30.47 in 2.5 mi Calm Calm - N/A   Clear
12:22 AM 37.0 °F 36.0 °F 96% 30.47 in 10.0 mi Calm Calm - N/A   Clear
12:35 AM 36.0 °F 33.1 °F 89% 30.46 in 10.0 mi Calm Calm - N/A   Partly Cloudy
12:53 AM 36.0 °F 34.0 °F 93% 30.47 in 10.0 mi Calm Calm - N/A   Clear
1:15 AM 35.1 °F 33.1 °F 92% 30.47 in 3.0 mi Calm Calm - N/A   Partly Cloudy
1:18 AM 36.0 °F 33.1 °F 89% 30.47 in 1.0 mi Calm Calm - N/A   Mist
1:25 AM 36.0 °F 34.0 °F 93% 30.47 in 0.5 mi Calm Calm - N/A Fog Fog
1:32 AM 37.0 °F 34.0 °F 89% 30.48 in 1.2 mi Calm Calm - N/A   Partly Cloudy
1:36 AM 34.0 °F 33.1 °F 96% 30.48 in 4.0 mi Calm Calm - N/A   Scattered Clouds
1:41 AM 33.1 °F 30.9 °F 92% 30.48 in 1.2 mi Calm Calm - N/A   Scattered Clouds
1:46 AM 34.0 °F 32.0 °F 92% 30.48 in 0.8 mi Calm Calm - N/A   Mist
1:51 AM 33.8 °F 32.0 °F 93% 30.47 in 1.2 mi Calm Calm - N/A   Scattered Clouds
1:53 AM 34.0 °F 32.0 °F 92% 30.48 in 2.0 mi Calm Calm - N/A   Partly Cloudy
2:08 AM 33.1 °F 32.0 °F 96% 30.47 in 1.0 mi Calm Calm - N/A   Mist
2:16 AM 35.1 °F 32.0 °F 89% 30.47 in 0.5 mi Calm Calm - N/A Fog Fog
2:44 AM 35.1 °F 33.1 °F 92% 30.48 in 1.2 mi Calm Calm - N/A   Scattered Clouds
2:48 AM 35.6 °F 33.8 °F 93% 30.48 in 4.0 mi Calm Calm - N/A   Partly Cloudy
2:53 AM 37.0 °F 34.0 °F 89% 30.48 in 4.0 mi Calm Calm - N/A   Partly Cloudy
2:57 AM 36.0 °F 34.0 °F 93% 30.48 in 1.8 mi Calm Calm - N/A   Scattered Clouds
3:08 AM 34.0 °F 33.1 °F 96% 30.48 in 0.8 mi Calm Calm - N/A   Mist
3:18 AM 34.0 °F 32.0 °F 92% 30.48 in 1.5 mi Calm Calm - N/A   Partly Cloudy
3:21 AM 34.0 °F 32.0 °F 92% 30.48 in 4.0 mi Calm Calm - N/A   Partly Cloudy
3:50 AM 33.8 °F 30.2 °F 87% 30.48 in 1.8 mi Calm Calm - N/A   Clear
3:53 AM 34.0 °F 30.9 °F 89% 30.48 in 1.0 mi Calm Calm - N/A   Clear
4:00 AM 34.0 °F 30.9 °F 89% 30.49 in 0.5 mi Calm Calm - N/A Fog Fog
4:19 AM 33.1 °F 32.0 °F 96% 30.49 in 1.8 mi Calm Calm - N/A   Partly Cloudy
4:21 AM 33.1 °F 30.9 °F 92% 30.49 in 4.0 mi Calm Calm - N/A   Partly Cloudy
4:29 AM 32.0 °F 30.0 °F 92% 30.49 in 1.2 mi Calm Calm - N/A   Partly Cloudy
4:31 AM 32.0 °F 30.0 °F 92% 30.49 in 0.8 mi Calm Calm - N/A   Mist
4:41 AM 33.1 °F 30.0 °F 89% 30.49 in 1.0 mi Calm Calm - N/A   Clear
4:53 AM 34.0 °F 30.9 °F 89% 30.50 in 1.8 mi Calm Calm - N/A   Clear
4:56 AM 33.1 °F 30.9 °F 92% 30.50 in 3.0 mi Calm Calm - N/A   Clear
5:53 AM 34.0 °F 30.9 °F 89% 30.50 in 10.0 mi Calm Calm - N/A   Scattered Clouds
6:12 AM 33.1 °F 30.9 °F 92% 30.49 in 6.0 mi Calm Calm - N/A   Scattered Clouds
6:53 AM 32.0 °F 30.0 °F 92% 30.50 in 10.0 mi Calm Calm - N/A   Clear
7:00 AM 34.0 °F 30.9 °F 89% 30.50 in 10.0 mi Calm Calm - N/A   Clear
7:53 AM 37.0 °F 35.1 °F 93% 30.51 in 10.0 mi Calm Calm - N/A   Clear
8:53 AM 48.0 °F 43.0 °F 83% 30.51 in 10.0 mi Calm Calm - N/A   Clear
9:53 AM 57.9 °F 48.0 °F 70% 30.50 in 10.0 mi Calm Calm - N/A   Clear
10:53 AM 63.0 °F 46.9 °F 56% 30.50 in 10.0 mi East 8.1 mph - N/A   Scattered Clouds
11:53 AM 64.9 °F 48.0 °F 54% 30.48 in 10.0 mi East 8.1 mph 16.1 mph N/A   Partly Cloudy
12:53 PM 66.0 °F 46.9 °F 50% 30.46 in 10.0 mi East 6.9 mph - N/A   Clear
1:53 PM 66.9 °F 46.9 °F 49% 30.43 in 10.0 mi SE 9.2 mph - N/A   Scattered Clouds
2:53 PM 68.0 °F 48.9 °F 50% 30.42 in 10.0 mi Variable 5.8 mph - N/A   Mostly Cloudy
3:53 PM 68.0 °F 46.0 °F 45% 30.40 in 10.0 mi South 9.2 mph - N/A   Clear
4:53 PM 66.9 °F 46.0 °F 47% 30.39 in 10.0 mi SSE 8.1 mph - N/A   Clear
5:53 PM 63.0 °F 51.1 °F 65% 30.39 in 10.0 mi SE 6.9 mph - N/A   Mostly Cloudy
6:53 PM 60.1 °F 52.0 °F 75% 30.40 in 10.0 mi Calm Calm - N/A   Mostly Cloudy
7:53 PM 55.0 °F 52.0 °F 89% 30.40 in 10.0 mi Calm Calm - N/A   Mostly Cloudy
8:53 PM 52.0 °F 48.9 °F 89% 30.40 in 10.0 mi Calm Calm - N/A   Partly Cloudy
9:53 PM 53.1 °F 51.1 °F 93% 30.40 in 10.0 mi NW 3.5 mph - N/A   Overcast
10:53 PM 53.1 °F 51.1 °F 93% 30.37 in 10.0 mi Calm Calm - N/A   Overcast
11:53 PM 52.0 °F 50.0 °F 93% 30.37 in 10.0 mi Calm Calm - N/A   Overcast